Regional Weather Roundup
Issued by NWS Spokane, WA

Home | Current Version | Previous Version | Text Only | Print | Product List | Glossary On
Versions: 1 2 3 4 5 6 7 8 9 10 11 12 13 14 15 16 17 18 19 20 21 22 23 24 25 26 27 28 29 30 31 32 33 34 35 36 37 38 39 40 41 42 43 44 45 46 47 48 49 50
000
NZUS01 KOTX 290600
RWROTX
EASTERN WASHINGTON/NORTHERN IDAHO ROUNDUP
NATIONAL WEATHER SERVICE, SPOKANE WA
1100 PM PDT THU APR 28 2016

Note: "fair" indicated few or no clouds below 12,000 feet with no
significant weather and/or obstructions to visibility.

...NORTHEAST WASHINGTON AND NORTHERN IDAHO PANHANDLE...

CITY           SKY/WX    TMP DP  RH WIND       PRES   REMARKS
SPOKANE INTL   CLOUDY    54  34  46 E8        29.96S
SPOKANE DOWNTO CLOUDY    55  34  45 E10       29.96F
COEUR D ALENE  CLOUDY    52  30  43 E7        29.96F
DEER PARK      CLOUDY    53  32  44 NE9       29.97S
SANDPOINT      CLOUDY    52  34  50 NE6       30.00S

...SOUTHEAST WASHINGTON AND SOUTHERN IDAHO PANHANDLE...

CITY           SKY/WX    TMP DP  RH WIND       PRES   REMARKS
WALLA WALLA    LGT RAIN  57  41  55 S14       29.94R
PULLMAN/MOSCOW CLOUDY    50  41  71 E13       29.97S
LOWELL           N/A     49  44  83 CALM      29.98S

...COLUMBIA BASIN...

CITY           SKY/WX    TMP DP  RH WIND       PRES   REMARKS
EPHRATA        CLOUDY    58  41  53 NW8       29.92S
MOSES LAKE     MOCLDY    58  47  66 W7        29.93R
TRI CITIES     MOCLDY    58  41  53 N15       29.93R
HERMISTON      MOCLDY    55  41  59 SW15G23   29.95R
PENDLETON      CLOUDY    53  38  56 W26G35    29.95S

...EAST SLOPES CASCADES...

CITY           SKY/WX    TMP DP  RH WIND       PRES   REMARKS
THE DALLES     CLEAR     57  39  51 W13       30.02S
YAKIMA         CLEAR     56  38  50 W9        29.97S
ELLENSBURG     CLEAR     51  38  60 NW18      29.97F
STAMPEDE PASS  FOG       38  36  92 VRB6      30.05S VSB 1/4
WENATCHEE      CLOUDY    56  37  49 NW12      29.95F
OMAK           CLOUDY    58  43  57 W8        29.91S

...SOUTHERN BRITISH COLUMBIA...

CITY           SKY/WX    TMP DP  RH WIND       PRES   REMARKS

...WESTERN MONTANA...

CITY           SKY/WX    TMP DP  RH WIND       PRES   REMARKS
MISSOULA       CLOUDY    39  31  72 CALM      30.01F

...NEIGHBORING CITIES...

CITY           SKY/WX    TMP DP  RH WIND       PRES   REMARKS
SEATTLE        CLOUDY    53  47  79 W3        30.10S



USA.gov is the U.S. government's official web portal to all federal, state and local government web resources and services.